Satellite-Ground Cal/Val Site Overpasses Predictions

Prediction of Satellite NPP Overpassing Cal/Val Site: Antarctic Dome C

Ground Cal/Val Site Location: Latitude: -75.10, Longitude: 123.35; Satellite-Ground Site NADIR distance within 100 km.

Table of predicted overpasses for the next 14.0 days since TLE Epoch: 2/26/2016
Interval Starting Time Ending Time Minimum Distance Time Minimum Distance (km)
1 02/28/2016 14:56:06 02/28/2016 14:56:34 02/28/2016 14:56:20 17.73
2 02/29/2016 14:37:23 02/29/2016 14:37:36 02/29/2016 14:37:30 89.17
3 03/01/2016 07:38:55 03/01/2016 07:39:22 03/01/2016 07:39:08 35.91
4 03/02/2016 07:20:09 03/02/2016 07:20:28 03/02/2016 07:20:18 74.28
5 03/04/2016 15:02:21 03/04/2016 15:02:46 03/04/2016 15:02:33 54.67
6 03/05/2016 14:43:30 03/05/2016 14:43:55 03/05/2016 14:43:42 54.50
7 03/06/2016 07:45:11 03/06/2016 07:45:31 03/06/2016 07:45:21 71.01
8 03/07/2016 07:26:17 03/07/2016 07:26:44 03/07/2016 07:26:30 37.14
9 03/09/2016 15:08:40 03/09/2016 15:08:51 03/09/2016 15:08:46 92.25
